Miscellaneous Local Product
Issued by NWS North Platte, NE

Home | Current Version | Previous Version | Text Only | Print | Product List | Glossary On
Versions: 1 2 3 4 5 6 7 8 9 10 11 12 13 14 15 16 17 18 19 20 21 22 23 24 25 26 27 28 29 30 31 32 33 34 35 36 37 38 39 40 41 42 43 44 45 46 47 48 49 50
000
AXUS43 KLBF 040410
MISLBF


WESTERN AND NORTH CENTRAL NEBRASKA HOURLY WEATHER ROUNDUP
NATIONAL WEATHER SERVICE NORTH PLATTE NE
1100 PM CDT THU SEP 03 2015

NOTE: "FAIR" INDICATES FEW OR NO CLOUDS BELOW 12,000 FEET WITH NO
SIGNIFICANT WEATHER AND/OR OBSTRUCTIONS TO VISIBILITY.

NOTE: STATIONS NOT REPORTING VARIABLES SUCH AS SKY/WEATHER OR
PRESSURE ARE PROVIDED BY THE NEBRASKA DEPARTMENT OF
ROADS...RAWS...AND APRS NETWORKS...AND ARE NOT UNDER
NATIONAL WEATHER SERVICE QUALITY CONTROL.

...OBSERVATIONS IN AND NEAR THE EASTERN PANHANDLE OF NEBRASKA...

CITY           SKY/WX    TMP DP  RH WIND       PRES   REMARKS
PINE RIDGE     CLOUDY    80  48  32 S8        29.83S
CHADRON        MOCLDY    76  47  35 SE7       29.82S
ALLIANCE       CLOUDY    73  53  49 W15       29.88R
SIDNEY         CLOUDY    71  54  54 NW10      29.95S
CRESCENT LAKE    N/A     73  48  41 MISG        N/A
BIG SPRINGS      N/A     73  60  63 S6          N/A
$$

...OBSERVATIONS IN NORTH CENTRAL NEBRASKA...

CITY           SKY/WX    TMP DP  RH WIND       PRES   REMARKS
VALENTINE      CLOUDY    76  56  49 E6        29.77F
THEDFORD       MOCLDY    75  58  55 CALM      29.80F
AINSWORTH      CLOUDY    78  64  60 CALM      29.79F
O`NEILL        MOCLDY    80  68  68 SE9       29.78F
ORD            CLOUDY    80  63  55 SE10      29.77S
BROKEN BOW     CLOUDY    79  63  57 E8        29.80R
SPRINGVIEW       N/A     75  68  80 CALM        N/A
SARGENT          N/A     76  64  67 CALM        N/A
CHAMBERS         N/A     75  67  76 S6          N/A
EWING            N/A     75  66  75 CALM        N/A
$$

...OBSERVATIONS IN SOUTHWEST NEBRASKA AND FAR NORTHEAST COLORADO...

CITY           SKY/WX    TMP DP  RH WIND       PRES   REMARKS
WRAY           CLOUDY    67  64  87 W6        29.87F
HOLYOKE        FAIR      73  64  73 NW9       29.90S
IMPERIAL       CLOUDY    70  62  76 NW14      29.88R
OGALLALA       TSTM      71  62  72 S7        29.88R
NORTH PLATTE   CLOUDY    78  63  59 E8        29.78S
MCCOOK         CLOUDY    85  58  39 S16G22    29.77S
LEXINGTON      CLOUDY    84  59  43 S17       29.79S
PAXTON           N/A     79  61  54 W5          N/A
BRADY            N/A     79  62  55 CALM        N/A
CALLAWAY         N/A     73  66  80 S8          N/A
$$

...OBSERVATIONS IN CENTRAL LINCOLN COUNTY AREA...

CITY           SKY/WX    TMP DP  RH WIND       PRES   REMARKS
N.P. AIRPORT   CLOUDY    78  63  59 E8        29.78S
N.P. DOWNTOWN    N/A     82  63  52 CALM        N/A
N.P. SOUTHEAST   N/A     80  63  55 CALM        N/A
N.P. HILLCREST   N/A     81  63  53 SE5         N/A
$$

...SOME OBSERVATIONS FROM AROUND THE REGION...

CITY           SKY/WX    TMP DP  RH WIND       PRES   REMARKS
DENVER         PTCLDY    60  56  86 S5        30.02S
LARAMIE        CLEAR     49  32  52 SW9       30.12S
CHEYENNE       PTCLDY    58  47  66 W7        30.04S
SCOTTSBLUFF    LGT RAIN  69  60  73 CALM      29.91F
RAPID CITY     CLOUDY    79  50  36 S13       29.78S
PIERRE         CLOUDY    79  71  76 E10       29.70S
WINNER         FAIR      80  67  64 SE10      29.73F
SIOUX FALLS    MOCLDY    79  72  79 SE9       29.81F
OMAHA          MOCLDY    81  69  67 S14       29.84S
GRAND ISLAND   MOCLDY    79  64  60 S13       29.81S
KANSAS CITY    CLEAR     74  67  78 S9        29.92R
WICHITA        CLOUDY    79  66  64 S13       29.88R
HAYS           CLOUDY    86  57  37 S18G24    29.82S
LIBERAL        MOCLDY    81  54  39 S15       29.89S
GOODLAND       MOCLDY    78  53  41 S8        29.84R
$$



USA.gov is the U.S. government's official web portal to all federal, state and local government web resources and services.